map of KUD home
KUD - Airport
Location
City:  Kudat, Sabah, Malaysia
ICAO:WBKT
IATA:KUD

Details
Type:Airport (Aerodrome, Airfield)
Latitude:6°55'27"N (6.924167)
Longitude:116°49'51"E (116.830833)
Elevation:10 ft (3 m)
Variation:0.65°W (WMM2015v2 magnetic declination)
-0.07° annual change
Runways:1
Longest:2395 × 59 ft (730 × 18 m)

Time
Time Zone:UTC+8
Local Time:

Weather
METAR:WBKT 041400Z 11004KT 060V190 9999 FEW014 BKN280 27/24 Q1013

Related Locations
Nearby:
Farthest:HUW: 12388 mi / 19937 km
Humaitá, AM, BR

Find:

   beyond  
but within

Other Information
Maps:
NOTAMs:
Links:
Sources:

  
  • flag of Malaysia
  • flag of Sabah
  

Sectional Chart

Flight Planning
at skyvector.com

Satellite Image

Google Maps Satellite view

 

Copyright © 2004-2019 Karl L. Swartz. All rights reserved.
The Great Circle Mapper name and logo are trademarks of the Great Circle Mapper.
All other trademarks mentioned herein belong to their respective owners.
Please see credits for attibutions and further copyright information.

  Follow gcmap on Facebook Follow gcmap on Twitter GCmap on LinkedIn

hCard Microformat

Geo Microformat